Home   Weather   McKinney   Past weeks
Flag for USA

Past Weather in McKinney, Texas, USA — Yesterday and Last 2 Weeks

Now
85 °F

Scattered clouds.


Feels Like: 88 °F
Forecast: 89 / 69 °F
Wind: 9 mph from Southwest

Location: McKinney Municipal Airport

Current Time: Jun 18, 2019 at 12:17:03 pm

Latest Report: Jun 18, 2019 at 11:53 am


Visibility: 10 mi

Pressure: 29.90 "Hg

Humidity: 57%

Dew Point: 68 °F

Location of McKinneyLocation

Past Weather in McKinney — Graph

°F

McKinney Temperature Yesterday

Maximum temperature yesterday: 86 °F (at 5:53 pm)
Minimum temperature yesterday: 65 °F (at 4:53 am)
Average temperature yesterday: 74 °F

High & Low Weather Summary for the Past Weeks

 TemperatureHumidityPressure
High92 °F (Jun 3, 2:53 pm)100% (Jun 6, 4:53 am)30.28 "Hg (Jun 6, 4:53 am)
Low60 °F (Jun 13, 5:53 am)29% (Jun 13, 2:53 pm)29.66 "Hg (Jun 6, 6:53 pm)
Average76 °F73%29.92 "Hg
* Reported Jun 3 10:53 am — Jun 18 10:53 am, McKinney. Weather by CustomWeather, © 2019

Note: Actual official high and low records may vary slightly from our data, if they occured in-between our weather recording intervals... More about our weather records

Advertising

McKinney Weather History for the Previous 24 Hours

Scroll right to see more
 ConditionsComfort  
Time TempWeatherWind HumidityBarometerVisibility
10:53 am
Tue, Jun 18
85 °FSunny.9 mph61%29.89 "Hg10 mi
9:53 am83 °FSunny.10 mph65%29.90 "Hg10 mi
8:53 am80 °FSunny.10 mph71%29.93 "Hg10 mi
7:53 am76 °FSunny.3 mph82%29.93 "Hg10 mi
6:53 am70 °FSunny.No wind93%29.93 "Hg10 mi
5:53 am69 °FClear.No wind96%29.91 "Hg10 mi
4:53 am70 °FPassing clouds.3 mph97%29.91 "Hg10 mi
3:53 am71 °FPassing clouds.No wind93%29.90 "Hg10 mi
2:53 am71 °FClear.No wind93%29.90 "Hg10 mi
1:53 am72 °FClear.No wind93%29.92 "Hg10 mi
12:53 am73 °FClear.No wind90%29.92 "Hg10 mi
11:53 pm
Mon, Jun 17
74 °FPassing clouds.No wind88%29.93 "Hg10 mi
10:53 pm75 °FClear.3 mph82%29.91 "Hg10 mi
9:53 pm77 °FClear.No wind77%29.88 "Hg10 mi
8:53 pm78 °FClear.3 mph74%29.85 "Hg10 mi
7:53 pm82 °FSunny.No wind65%29.85 "Hg10 mi
6:53 pm85 °FSunny.5 mph53%29.85 "Hg10 mi
5:53 pm86 °FSunny.N/A51%29.85 "Hg10 mi
4:53 pm84 °FScattered clouds.6 mph57%29.88 "Hg10 mi
3:53 pm84 °FBroken clouds.5 mph55%29.90 "Hg10 mi
2:53 pm83 °FScattered clouds.No wind55%29.91 "Hg10 mi
1:53 pm80 °FScattered clouds.5 mph62%N/A10 mi
12:53 pm79 °FPartly sunny.No wind67%N/A10 mi
Weather by CustomWeather, © 2019

See weather overview